Location: Melbourne
(37.8666°S, 145.1333°E)
Time: 11:45:19
(UTC+10:00)

Hubble Space Telescope - Visible Passes

Search period start: 27 May 2015 00:00
Search period end: 06 June 2015 00:00
Orbit: 542 x 546 km, 28.5° (Epoch: 26 May)

Date Brightness Start Highest point End Pass type
(mag) Time Alt. Az. Time Alt. Az. Time Alt. Az.
27 May 3.8 19:57:27 10° NW 19:57:29 10° NNW 19:57:29 10° NNW visible
28 May 3.4 18:10:21 10° NNE 18:10:54 10° NNE 18:11:33 10° NNE visible
28 May 3.5 19:48:28 10° NW 19:49:19 14° NNW 19:49:19 14° NNW visible
29 May 3.2 18:00:18 10° N 18:02:06 13° NNE 18:03:56 10° NE visible
29 May 3.2 19:39:33 10° NW 19:41:08 17° NNW 19:41:08 17° NNW visible
30 May 3.2 17:50:55 10° NNW 17:53:16 15° NNE 17:55:41 10° NE visible
30 May 2.9 19:30:42 10° NW 19:32:57 20° NNW 19:32:57 20° NNW visible
31 May 3.1 17:41:45 10° NNW 17:44:28 17° NNE 17:47:14 10° NE visible
31 May 2.7 19:21:54 10° NW 19:24:46 22° N 19:24:46 22° N visible
01 Jun 3.0 17:32:41 10° NW 17:35:40 19° N 17:38:40 10° NE visible
01 Jun 2.6 19:13:07 10° NW 19:16:26 22° N 19:16:36 22° N visible
02 Jun 2.7 19:04:23 10° NW 19:07:38 21° N 19:08:29 20° NNE visible
03 Jun 2.8 18:55:43 10° NW 18:58:50 20° N 19:00:25 16° NNE visible
04 Jun 3.1 18:47:05 10° NW 18:50:02 18° N 18:52:26 12° NNE visible
05 Jun 3.3 18:38:31 10° NW 18:41:13 16° NNW 18:43:52 10° NNE visible
